Weather History for Decatur, IL

Change the Weather History Date:

Tuesday, February 25, 2014

  Actual Average Record
Temperature  
Mean Temperature 18 °F 34 °F  
Max Temperature 25 °F 43 °F 25 °F (2014)
Min Temperature 11 °F 26 °F 11 °F (2014)
Degree Days  
Heating Degree Days 47 31  
Month to date heating degree days 1110 859  
Since 1 July heating degree days 4671 4166  
Cooling Degree Days 0 0  
Month to date cooling degree days 0 0  
Year to date cooling degree days 0 0  
Moisture  
Dew Point 14 °F    
Average Humidity 75    
Maximum Humidity 88    
Minimum Humidity 61    
Precipitation  
Precipitation 0.02 in 0.08 in 0.02 in (2014)
Month to date precipitation 0.41 1.76  
Year to date precipitation 1.12 3.50  
Sea Level Pressure  
Sea Level Pressure 30.27 in    
Wind  
Wind Speed 12 mph (NW)    
Max Wind Speed 25 mph    
Max Gust Speed 31 mph    
Visibility 8 miles    
Events Snow    
T = Trace of Precipitation, MM = Missing Value Source: NWS Daily Summary

Daily Weather History Graph

Daily Weather History Graph

Search for Another Location

Airport:

Trip Planner

Search our weather history database for the weather conditions in past years. The results will help you decide how hot, cold, wet, or windy it might be!

Date:

Astronomy

Feb. 25, 2014 Rise Set
Actual Time 6:34 AM CST 5:43 PM CST
Civil Twilight 6:07 AM CST 6:10 PM CST
Nautical Twilight 5:35 AM CST 6:41 PM CST
Astronomical Twilight 5:04 AM CST 7:12 PM CST
Moon 3:28 AM CST (2/25) 1:48 PM CST (2/25)
Length of Visible Light 12h 03m
Length of Day
11h 08m
Waning Crescent, 18% of the Moon is Illuminated
Feb 25
Waning Crescent
Mar 1
New
Mar 8
First Quarter
Mar 16
Full
Mar 23
Last Quarter

Hourly Weather History & Observations

Time (CST) Temp. Windchill Dew Point Humidity Pressure Visibility Wind Dir Wind Speed Gust Speed Precip Events Conditions
12:29 AM 24.8 °F 14.6 °F 19.4 °F 80% 30.24 in 2.0 mi NNW 10.4 mph - 0.00 in Snow Light Snow
12:34 AM 24.8 °F 14.6 °F 19.4 °F 80% 30.24 in 1.8 mi NNW 10.4 mph - 0.00 in Snow Light Snow
12:54 AM 23.0 °F 14.7 °F 19.0 °F 85% 30.27 in 1.5 mi NNW 6.9 mph - 0.00 in Snow Light Snow
1:03 AM 23.0 °F 13.9 °F 19.4 °F 86% 30.24 in 2.0 mi NNW 8.1 mph - 0.00 in Snow Light Snow
1:14 AM 23.0 °F 12.4 °F 19.4 °F 86% 30.25 in 3.0 mi NNW 10.4 mph - 0.00 in Snow Light Snow
1:31 AM 21.2 °F 10.9 °F 19.4 °F 93% 30.25 in 1.8 mi NNW 9.2 mph - 0.00 in Snow Light Snow
1:52 AM 21.2 °F 9.5 °F 19.4 °F 93% 30.26 in 2.0 mi NNW 11.5 mph - 0.00 in Snow Light Snow
1:54 AM 21.9 °F 11.0 °F 18.0 °F 85% 30.29 in 2.5 mi NNW 10.4 mph - 0.00 in Snow Light Snow
2:04 AM 21.2 °F 9.5 °F 17.6 °F 86% 30.26 in 2.5 mi NNW 11.5 mph - 0.00 in Snow Light Snow
2:11 AM 21.2 °F 11.7 °F 17.6 °F 86% 30.25 in 2.5 mi NNW 8.1 mph - 0.00 in Snow Light Snow
2:17 AM 21.2 °F 11.7 °F 17.6 °F 86% 30.25 in 1.8 mi NNW 8.1 mph - 0.00 in Snow Light Snow
2:37 AM 21.2 °F 10.9 °F 17.6 °F 86% 30.25 in 3.0 mi NNW 9.2 mph - 0.00 in Snow Light Snow
2:54 AM 21.9 °F 13.4 °F 18.0 °F 85% 30.27 in 5.0 mi NNW 6.9 mph - 0.00 in Snow Light Snow
3:54 AM 21.0 °F 9.3 °F 15.1 °F 78% 30.26 in 9.0 mi North 11.5 mph - 0.00 in   Overcast
4:19 AM 21.2 °F 11.7 °F 15.8 °F 80% 30.24 in 10.0 mi NW 8.1 mph - N/A   Overcast
4:54 AM 19.9 °F 10.1 °F 16.0 °F 85% 30.27 in 6.0 mi NNW 8.1 mph - 0.00 in Snow Light Snow
5:25 AM 19.4 °F 6.6 °F 15.8 °F 86% 30.25 in 9.0 mi NNW 12.7 mph - 0.00 in   Overcast
5:54 AM 19.9 °F 8.6 °F 15.1 °F 81% 30.28 in 8.0 mi NNW 10.4 mph - 0.00 in   Overcast
6:54 AM 19.0 °F 8.2 °F 15.1 °F 85% 30.29 in 10.0 mi NW 9.2 mph - N/A   Overcast
7:05 AM 19.4 °F 7.2 °F 15.8 °F 86% 30.26 in 10.0 mi NNW 11.5 mph - N/A   Overcast
7:54 AM 19.9 °F 7.9 °F 15.1 °F 81% 30.30 in 10.0 mi North 11.5 mph - N/A   Overcast
8:20 AM 19.4 °F 8.6 °F 14.0 °F 80% 30.28 in 10.0 mi NW 9.2 mph - N/A   Overcast
8:54 AM 19.0 °F 10.0 °F 12.9 °F 77% 30.31 in 10.0 mi NNW 6.9 mph - N/A   Mostly Cloudy
9:29 AM 19.4 °F 10.4 °F 14.0 °F 80% 30.28 in 10.0 mi NNW 6.9 mph - N/A   Overcast
9:54 AM 21.0 °F 13.4 °F 15.1 °F 78% 30.31 in 10.0 mi WNW 5.8 mph - 0.01 in   Scattered Clouds
10:54 AM 23.0 °F 14.7 °F 16.0 °F 74% 30.30 in 10.0 mi Variable 6.9 mph - 0.01 in   Clear
11:54 AM 24.1 °F 13.7 °F 16.0 °F 71% 30.29 in 10.0 mi NNW 10.4 mph - N/A   Scattered Clouds
12:34 PM 24.8 °F 13.4 °F 15.8 °F 69% 30.27 in 10.0 mi NW 12.7 mph - N/A   Mostly Cloudy
12:54 PM 24.1 °F 13.7 °F 15.1 °F 69% 30.30 in 10.0 mi NW 10.4 mph - N/A   Overcast
1:54 PM 23.0 °F 10.6 °F 15.1 °F 72% 30.28 in 10.0 mi NW 13.8 mph - N/A   Overcast
2:04 PM 23.0 °F 10.6 °F 15.8 °F 74% 30.25 in 10.0 mi NW 13.8 mph - N/A   Mostly Cloudy
2:54 PM 23.0 °F 11.1 °F 14.0 °F 68% 30.27 in 10.0 mi NW 12.7 mph 19.6 mph N/A   Overcast
3:20 PM 24.8 °F 13.4 °F 15.8 °F 69% 30.23 in 10.0 mi NW 12.7 mph - N/A   Mostly Cloudy
3:54 PM 23.0 °F 10.6 °F 12.9 °F 65% 30.25 in 10.0 mi NW 13.8 mph - N/A   Overcast
4:38 PM 23.0 °F 13.9 °F 15.8 °F 74% 30.22 in 10.0 mi WNW 8.1 mph - N/A   Overcast
4:54 PM 21.9 °F 8.7 °F 14.0 °F 72% 30.25 in 10.0 mi WNW 15.0 mph - N/A   Overcast
5:54 PM 21.0 °F 9.3 °F 12.0 °F 68% 30.26 in 10.0 mi West 11.5 mph - N/A   Mostly Cloudy
6:07 PM 19.4 °F 6.6 °F 10.4 °F 68% 30.23 in 10.0 mi NW 12.7 mph - N/A   Scattered Clouds
6:25 PM 19.4 °F 5.0 °F 12.2 °F 74% 30.22 in 10.0 mi WNW 16.1 mph - N/A   Mostly Cloudy
6:50 PM 19.4 °F 6.0 °F 10.4 °F 68% 30.23 in 10.0 mi WNW 13.8 mph - N/A   Mostly Cloudy
6:54 PM 19.0 °F 5.0 °F 10.0 °F 68% 30.27 in 10.0 mi WNW 15.0 mph - N/A   Mostly Cloudy
7:54 PM 17.1 °F 3.0 °F 7.0 °F 65% 30.27 in 10.0 mi WNW 13.8 mph 23.0 mph N/A   Overcast
8:54 PM 15.1 °F 0.5 °F 5.0 °F 64% 30.28 in 10.0 mi NW 13.8 mph 23.0 mph N/A   Overcast
9:54 PM 12.9 °F -3.9 °F 1.0 °F 59% 30.29 in 10.0 mi WNW 17.3 mph 28.8 mph N/A   Mostly Cloudy
10:54 PM 12.9 °F -3.4 °F 3.0 °F 65% 30.30 in 10.0 mi NW 16.1 mph 25.3 mph N/A   Mostly Cloudy
11:54 PM 10.9 °F -7.9 °F -0.0 °F 61% 30.31 in 10.0 mi NW 20.7 mph 28.8 mph N/A   Clear